N8TWM-13 Weather Reports


Display with metric or nautical units.
time (UTC)temp
F
wind
direction
speed
MPH
gust
MPH
rain 1hr
in
rain 24hr
in
rain mn
in
humidity
%
barometer
mb
20260510175626 58 30 4.0 6.0 0.00 0.01 0.01 52 1017.6
20260510175122 58 118 2.0 3.0 0.00 0.01 0.01 51 1017.5
20260510174620 58 45 4.0 6.0 0.00 0.01 0.01 50 1017.9
20260510174118 57 358 1.0 2.0 0.00 0.01 0.01 50 1017.9
20260510173613 57 296 2.0 2.0 0.00 0.01 0.01 52 1017.9
20260510173110 57 0 5.0 7.0 0.00 0.01 0.01 52 1018.1
20260510172605 58 292 3.0 5.0 0.00 0.01 0.01 52 1018.1
20260510172102 58 28 3.0 5.0 0.00 0.01 0.01 55 1017.9
20260510171558 59 269 1.0 2.0 0.00 0.01 0.01 51 1017.9
20260510171056 57 358 3.0 7.0 0.00 0.01 0.01 53 1018.3
20260510170552 57 45 1.0 2.0 0.00 0.01 0.01 56 1018.3
20260510170049 57 311 1.0 2.0 0.00 0.01 0.01 56 1018.2
20260510165544 57 77 7.0 9.0 0.00 0.01 0.01 54 1018.1
20260510165041 57 25 3.0 5.0 0.00 0.01 0.01 56 1018.2
20260510164538 56 45 2.0 2.0 0.00 0.01 0.01 55 1018.4
20260510164035 56 66 1.0 5.0 0.00 0.01 0.01 55 1018.3
20260510163530 56 283 1.0 1.0 0.00 0.01 0.01 52 1018.1
20260510163026 55 313 3.0 3.0 0.00 0.01 0.01 53 1018.3
20260510162522 57 46 7.0 8.0 0.00 0.01 0.01 53 1017.9
20260510162019 56 263 0.0 1.0 0.00 0.01 0.01 58 1018.2
20260510161515 55 323 3.0 5.0 0.00 0.01 0.01 57 1017.9
20260510161011 55 38 1.0 3.0 0.00 0.01 0.01 58 1018.0
20260510160508 55 5 5.0 9.0 0.00 0.01 0.01 59 1017.9
20260510160002 56 89 2.0 3.0 0.00 0.01 0.01 58 1017.8
20260510155459 57 51 7.0 8.0 0.00 0.01 0.01 57 1017.9
20260510154955 55 264 1.0 2.0 0.00 0.01 0.01 60 1017.9
20260510154451 54 55 5.0 7.0 0.00 0.01 0.01 57 1017.7
20260510153950 55 9 7.0 8.0 0.00 0.01 0.01 59 1017.8
20260510153446 54 93 7.0 10.0 0.00 0.01 0.01 60 1017.7
20260510152943 54 39 5.0 6.0 0.00 0.01 0.01 60 1017.8
20260510152441 54 11 5.0 6.0 0.00 0.01 0.01 59 1017.5
20260510151937 54 46 2.0 3.0 0.00 0.01 0.01 60 1017.4
20260510151434 54 20 4.0 7.0 0.00 0.01 0.01 61 1017.5
20260510150930 53 301 2.0 2.0 0.00 0.01 0.01 60 1017.4
20260510150426 53 287 1.0 3.0 0.00 0.01 0.01 61 1017.3
20260510145922 53 15 5.0 7.0 0.00 0.01 0.01 64 1017.2
20260510145419 53 348 4.0 6.0 0.00 0.01 0.01 64 1017.2
20260510144915 53 295 3.0 3.0 0.00 0.01 0.01 66 1017.3
20260510144412 53 76 5.0 7.0 0.00 0.01 0.01 66 1016.8
20260510143907 53 281 3.0 3.0 0.00 0.01 0.01 67 1017.0
20260510143403 52 39 4.0 6.0 0.00 0.01 0.01 68 1016.9
20260510142901 52 28 2.0 2.0 0.00 0.01 0.01 68 1016.9
20260510142357 52 41 6.0 7.0 0.00 0.01 0.01 67 1016.6
20260510141854 52 56 7.0 9.0 0.00 0.01 0.01 67 1016.8
20260510141351 52 346 5.0 6.0 0.00 0.01 0.01 67 1016.4
20260510140848 51 7 9.0 11.0 0.00 0.01 0.01 68 1016.5
20260510140343 52 2 5.0 6.0 0.00 0.01 0.01 68 1016.3
20260510135837 52 297 2.0 2.0 0.00 0.01 0.01 72 1016.5
20260510135333 51 350 2.0 3.0 0.00 0.01 0.01 73 1016.6
20260510134831 51 38 3.0 5.0 0.00 0.01 0.01 74 1016.2
20260510134328 50 346 4.0 6.0 0.00 0.01 0.01 74 1016.3
20260510133824 50 315 6.0 9.0 0.00 0.01 0.01 74 1016.6
20260510133320 50 11 5.0 7.0 0.00 0.01 0.01 75 1016.6
20260510132816 50 16 3.0 5.0 0.00 0.01 0.01 76 1016.3
20260510132314 50 52 5.0 6.0 0.00 0.01 0.01 77 1016.6
20260510131810 49 28 3.0 3.0 0.00 0.01 0.01 78 1016.3
20260510131308 49 6 4.0 7.0 0.00 0.01 0.01 78 1016.2
20260510130805 49 349 4.0 5.0 0.00 0.01 0.01 78 1015.9
20260510130302 49 342 4.0 5.0 0.00 0.01 0.01 79 1016.1
20260510125758 49 328 4.0 6.0 0.00 0.01 0.01 79 1016.2
20260510125254 49 0 5.0 7.0 0.00 0.01 0.01 80 1016.1
20260510124751 49 316 3.0 3.0 0.00 0.01 0.01 80 1016.0
20260510124248 49 3 5.0 8.0 0.00 0.01 0.01 81 1015.8
20260510123743 49 312 2.0 2.0 0.00 0.01 0.01 81 1015.6
20260510123240 49 277 2.0 3.0 0.00 0.01 0.01 81 1015.6
20260510122736 48 359 3.0 6.0 0.00 0.01 0.01 81 1015.4
20260510122232 48 355 5.0 7.0 0.00 0.01 0.01 81 1015.4
20260510121729 48 348 3.0 3.0 0.00 0.01 0.01 81 1015.4
20260510121226 48 355 3.0 3.0 0.00 0.01 0.01 80 1015.2
20260510120724 48 346 2.0 3.0 0.00 0.01 0.01 80 1015.5
20260510120220 48 355 5.0 7.0 0.00 0.01 0.01 80 1015.2
20260510115716 49 291 1.0 1.0 0.00 0.01 0.01 79 1015.1
20260510115214 49 5 3.0 3.0 0.00 0.01 0.01 79 1014.8
20260510114709 49 62 4.0 5.0 0.00 0.01 0.01 78 1014.8
20260510114206 49 313 0.0 1.0 0.00 0.01 0.01 78 1014.6
20260510113701 49 296 2.0 2.0 0.00 0.01 0.01 77 1014.5
20260510113158 49 316 3.0 3.0 0.00 0.01 0.01 77 1014.3
20260510112649 49 22 6.0 8.0 0.00 0.01 0.01 77 1014.2
20260510112146 49 340 4.0 5.0 0.00 0.01 0.01 77 1014.1
20260510111642 49 356 3.0 5.0 0.00 0.01 0.01 77 1014.1
20260510111138 49 278 2.0 2.0 0.00 0.01 0.01 78 1014.2
20260510110633 48 264 0.0 1.0 0.00 0.01 0.01 78 1014.1
20260510110131 48 264 0.0 0.0 0.00 0.01 0.01 78 1013.6
20260510105627 48 264 0.0 0.0 0.00 0.01 0.01 78 1013.7
20260510105126 48 263 0.0 0.0 0.00 0.01 0.01 79 1013.7
20260510104624 48 261 0.0 0.0 0.00 0.01 0.01 79 1013.3
20260510104120 48 262 0.0 0.0 0.00 0.01 0.01 80 1013.6
20260510103617 48 260 0.0 0.0 0.00 0.01 0.01 80 1013.3
20260510103113 48 261 0.0 0.0 0.00 0.01 0.01 80 1013.2
20260510102609 47 259 0.0 0.0 0.00 0.01 0.01 81 1013.1
20260510102105 47 258 0.0 0.0 0.00 0.01 0.01 81 1013.1
20260510101603 47 258 0.0 0.0 0.00 0.01 0.01 82 1013.0
20260510101101 47 258 0.0 0.0 0.00 0.01 0.01 82 1012.8
20260510100556 47 258 0.0 0.0 0.00 0.01 0.01 82 1012.7
20260510100054 47 258 0.0 0.0 0.00 0.01 0.01 81 1012.5
20260510095550 47 258 0.0 0.0 0.00 0.01 0.01 81 1012.8
20260510095049 47 258 0.0 0.0 0.00 0.01 0.01 81 1012.6
20260510094544 46 258 0.0 0.0 0.00 0.01 0.01 80 1012.5
20260510094040 47 258 0.0 0.0 0.00 0.01 0.01 80 1012.5
20260510093536 47 258 0.0 0.0 0.00 0.01 0.01 80 1012.4
20260510093033 47 258 0.0 0.0 0.00 0.01 0.01 80 1012.5
20260510092530 47 257 0.0 0.0 0.00 0.01 0.01 80 1012.6
20260510092029 47 257 0.0 0.0 0.00 0.01 0.01 79 1012.5
20260510091527 47 257 0.0 0.0 0.00 0.01 0.01 79 1012.5
20260510091022 48 257 0.0 0.0 0.00 0.01 0.01 78 1012.2
20260510090520 48 257 0.0 0.0 0.00 0.01 0.01 77 1012.2
20260510090015 48 257 0.0 0.0 0.00 0.01 0.01 77 1012.3
20260510085510 48 257 0.0 0.0 0.00 0.01 0.01 77 1012.1
20260510085006 48 255 0.0 0.0 0.00 0.01 0.01 78 1012.0
20260510084503 48 262 0.0 0.0 0.00 0.01 0.01 76 1011.9
20260510084000 48 265 0.0 1.0 0.00 0.01 0.01 76 1011.9
20260510083456 48 255 0.0 1.0 0.00 0.01 0.01 77 1011.9
20260510082952 49 255 0.0 0.0 0.00 0.01 0.01 77 1011.9
20260510082450 49 255 0.0 0.0 0.00 0.01 0.01 76 1011.7
20260510081949 50 255 0.0 0.0 0.00 0.01 0.01 74 1011.7
20260510081445 50 259 0.0 1.0 0.00 0.01 0.01 75 1011.6
20260510080941 50 268 0.0 1.0 0.00 0.01 0.01 74 1011.6
20260510080440 50 253 1.0 1.0 0.00 0.01 0.01 75 1011.5
20260510075937 50 304 1.0 2.0 0.00 0.01 0.01 75 1011.3
20260510075435 51 274 0.0 0.0 0.00 0.01 0.01 75 1011.4
20260510074931 51 354 2.0 2.0 0.00 0.01 0.01 76 1011.2
20260510074429 51 289 2.0 2.0 0.00 0.01 0.01 78 1011.5
20260510073925 51 280 1.0 1.0 0.00 0.01 0.01 80 1011.3
20260510073420 51 272 0.0 0.0 0.00 0.01 0.01 80 1011.0
20260510072917 52 16 4.0 5.0 0.00 0.01 0.01 81 1011.3
20260510072414 52 350 3.0 3.0 0.00 0.01 0.01 81 1010.9
20260510071909 52 314 4.0 5.0 0.00 0.01 0.01 82 1010.9
20260510071406 53 335 11.0 14.0 0.00 0.01 0.01 83 1011.0
20260510070905 53 357 3.0 7.0 0.00 0.01 0.01 84 1010.9
20260510070401 54 336 7.0 9.0 0.00 0.01 0.01 83 1010.6
20260510065856 54 266 1.0 2.0 0.00 0.01 0.01 84 1010.5
20260510065353 55 303 2.0 2.0 0.00 0.01 0.01 83 1010.7
20260510064850 55 347 2.0 6.0 0.00 0.01 0.01 82 1010.6
20260510064348 55 261 2.0 2.0 0.00 0.01 0.01 82 1010.2
20260510063843 55 278 2.0 3.0 0.00 0.01 0.01 82 1010.4
20260510063340 56 259 1.0 1.0 0.00 0.01 0.01 83 1010.4
20260510062837 56 255 2.0 2.0 0.00 0.01 0.01 82 1010.1
20260510062332 56 263 2.0 2.0 0.00 0.01 0.01 82 1010.3
20260510061828 56 277 2.0 2.0 0.00 0.01 0.01 83 1010.2
20260510061325 57 259 0.0 1.0 0.00 0.01 0.01 84 1010.0
20260510060821 57 264 2.0 5.0 0.00 0.01 0.01 84 1010.1
20260510060318 57 250 1.0 2.0 0.00 0.01 0.01 84 1010.1
20260510055815 57 244 1.0 1.0 0.00 0.01 0.01 83 1009.9
20260510055314 56 253 3.0 3.0 0.00 0.01 0.01 85 1009.6
20260510054813 56 252 0.0 0.0 0.00 0.01 0.01 86 1009.9
20260510054309 56 255 0.0 0.0 0.00 0.01 0.01 87 1009.6
20260510053809 55 252 0.0 0.0 0.00 0.01 0.01 88 1009.6
20260510053300 55 253 0.0 0.0 0.00 0.01 0.01 89 1009.6
20260510052756 55 255 0.0 0.0 0.00 0.01 0.01 90 1009.6
20260510052252 55 243 0.0 0.0 0.00 0.01 0.01 90 1009.4
20260510051748 54 255 0.0 0.0 0.07 0.01 0.01 91 1009.2
20260510051245 54 251 0.0 0.0 0.07 0.01 0.01 91 1009.2
20260510050742 55 239 0.0 0.0 0.00 0.00 0.00 91 1009.2
20260510050239 55 242 0.0 0.0 0.00 0.00 0.00 91 1009.1
20260510045736 55 242 0.0 0.0 0.00 0.00 0.00 91 1009.2
20260510045232 55 241 0.0 0.0 0.00 0.00 0.00 91 1009.2
20260510044729 55 245 0.0 0.0 0.00 0.00 0.00 91 1009.0
20260510044227 55 262 0.0 0.0 0.00 0.00 0.00 91 1009.2
20260510043721 55 228 0.0 0.0 0.00 0.00 0.00 91 1008.9
20260510043219 55 221 2.0 5.0 0.00 0.00 0.00 92 1009.0
20260510042716 55 235 0.0 0.0 0.00 0.00 0.00 92 1008.9
20260510042212 55 217 1.0 5.0 0.00 0.00 0.00 94 1009.0
20260510041709 55 214 2.0 5.0 0.00 0.00 0.00 95 1009.2
20260510041206 55 248 4.0 7.0 0.00 0.00 0.00 96 1009.2
20260510040703 55 250 0.0 0.0 0.00 0.00 0.00 96 1009.4
20260510040200 54 233 0.0 0.0 0.00 0.00 0.00 96 1009.0
20260510035655 53 233 0.0 0.0 0.05 0.67 0.67 96 1008.5
20260510035151 53 214 0.0 0.0 0.05 0.67 0.67 96 1008.7
20260510034647 53 235 0.0 0.0 0.07 0.66 0.66 96 1008.7
20260510034145 53 235 0.0 0.0 0.07 0.66 0.66 96 1008.6
20260510033641 54 236 0.0 0.0 0.00 0.65 0.65 95 1008.7
20260510033139 54 235 0.0 0.0 0.00 0.65 0.65 95 1008.6
20260510032635 53 234 0.0 0.0 0.00 0.65 0.65 95 1008.4
20260510032130 54 235 0.0 0.0 0.00 0.65 0.65 95 1008.5
20260510031625 54 235 0.0 0.0 0.00 0.65 0.65 95 1008.7
20260510031122 54 235 0.0 0.0 0.00 0.65 0.65 95 1008.7
20260510030617 54 234 0.0 0.0 0.00 0.65 0.65 95 1008.5
20260510030115 54 234 0.0 0.0 0.00 0.65 0.65 95 1008.8
20260510025612 54 234 0.0 0.0 0.00 0.65 0.65 95 1008.9
20260510025109 55 230 0.0 0.0 0.00 0.65 0.65 95 1008.8
20260510024606 55 254 0.0 0.0 0.00 0.65 0.65 95 1008.9
20260510024102 55 258 0.0 0.0 0.00 0.65 0.65 95 1008.8
20260510023558 55 246 0.0 0.0 0.00 0.65 0.65 94 1008.8
20260510023056 55 246 0.0 0.0 0.00 0.65 0.65 94 1008.6
20260510022555 55 246 0.0 0.0 0.00 0.65 0.65 94 1008.5
20260510022050 55 246 0.0 0.0 0.00 0.65 0.65 94 1008.4
20260510021546 55 246 0.0 0.0 0.00 0.65 0.65 94 1008.1
20260510021044 55 246 0.0 0.0 0.00 0.65 0.65 94 1008.3
20260510020538 55 246 0.0 0.0 0.00 0.65 0.65 94 1008.3
20260510020034 55 246 0.0 0.0 0.00 0.65 0.65 94 1007.9
20260510015530 55 246 0.0 0.0 0.12 0.65 0.65 94 1008.4
20260510015026 55 250 0.0 0.0 0.17 0.65 0.65 94 1008.4
20260510014523 55 246 0.0 0.0 0.05 0.63 0.63 94 1008.1
20260510014020 55 239 0.0 0.0 0.00 0.62 0.62 94 1007.4
20260510013514 55 238 0.0 0.0 0.00 0.62 0.62 94 1007.6
20260510013010 55 238 0.0 0.0 0.00 0.62 0.62 93 1007.8
20260510012505 55 238 0.0 0.0 0.00 0.62 0.62 93 1007.5
20260510012000 55 238 0.0 0.0 0.00 0.62 0.62 93 1007.7
20260510011455 55 232 0.0 0.0 0.00 0.62 0.62 93 1007.6
20260510010951 55 247 0.0 0.0 0.00 0.62 0.62 93 1007.4
20260510010449 55 247 0.0 0.0 0.00 0.62 0.62 93 1007.4
20260510005946 55 247 0.0 0.0 0.00 0.62 0.62 93 1007.5
20260510005441 55 247 0.0 0.0 0.00 0.62 0.62 93 1007.3
20260510004939 55 247 0.0 0.0 0.00 0.62 0.62 92 1007.3
20260510004436 55 248 0.0 0.0 0.00 0.62 0.62 92 1007.3
20260510003934 55 248 0.0 0.0 0.00 0.62 0.62 92 1007.3
20260510003431 55 248 0.0 0.0 0.00 0.62 0.62 92 1007.4
20260510002930 56 249 0.0 0.0 0.00 0.62 0.62 91 1007.3
20260510002427 56 249 0.0 0.0 0.00 0.62 0.62 91 1007.3
20260510001924 56 246 0.0 0.0 0.00 0.62 0.62 91 1007.1
20260510001421 56 240 0.0 0.0 0.19 0.62 0.62 91 1007.3
20260510000919 56 271 0.0 0.0 0.31 0.62 0.62 90 1007.4
20260510000415 56 286 0.0 0.0 0.31 0.60 0.60 89 1007.4
20260509235911 56 254 0.0 0.0 0.19 0.58 0.58 88 1007.6
20260509235409 56 256 0.0 0.0 0.07 0.55 0.55 88 1007.9
20260509234904 57 272 0.0 0.0 0.07 0.55 0.55 87 1007.3
20260509234402 57 273 0.0 0.0 0.00 0.54 0.54 86 1007.4
20260509233859 58 273 4.0 6.0 0.12 0.54 0.54 84 1007.3
20260509233357 60 266 4.0 8.0 0.12 0.54 0.54 80 1006.9
20260509232852 66 347 7.0 14.0 0.00 0.52 0.52 71 1006.7
20260509232351 66 237 0.0 0.0 0.00 0.52 0.52 68 1006.0
20260509231847 66 233 2.0 2.0 0.00 0.52 0.52 68 1005.7
20260509231343 67 252 1.0 1.0 0.00 0.52 0.52 67 1005.8
20260509230841 68 230 1.0 2.0 0.00 0.52 0.52 62 1005.6
20260509230338 68 254 3.0 3.0 0.00 0.52 0.52 61 1005.6
20260509225833 68 221 3.0 5.0 0.00 0.52 0.52 60 1005.8
20260509225330 69 224 4.0 6.0 0.00 0.52 0.52 59 1005.6
20260509224826 69 175 5.0 7.0 0.00 0.52 0.52 59 1005.3
20260509224322 68 179 4.0 5.0 0.00 0.52 0.52 60 1005.6
20260509223819 68 249 8.0 11.0 0.00 0.52 0.52 60 1005.3
20260509223316 69 227 8.0 9.0 0.00 0.52 0.52 59 1005.5
20260509222813 69 202 0.0 1.0 0.00 0.52 0.52 59 1005.6
20260509222308 70 253 3.0 3.0 0.00 0.52 0.52 58 1005.3
20260509221804 70 215 2.0 3.0 0.00 0.52 0.52 58 1005.7
20260509221302 69 227 3.0 5.0 0.00 0.52 0.52 59 1005.2
20260509220756 70 226 7.0 11.0 0.00 0.52 0.52 55 1005.6
20260509220253 70 233 3.0 3.0 0.00 0.52 0.52 58 1005.3
20260509215748 71 237 3.0 3.0 0.00 0.52 0.52 57 1004.9
20260509215245 70 245 1.0 2.0 0.00 0.52 0.52 58 1005.3
20260509214742 70 230 3.0 6.0 0.00 0.52 0.52 58 1005.1
20260509214239 71 196 3.0 6.0 0.00 0.52 0.52 56 1005.2
20260509213736 70 225 1.0 2.0 0.00 0.52 0.52 55 1005.3
20260509213232 70 228 1.0 1.0 0.00 0.52 0.52 57 1005.3
20260509212730 70 227 3.0 5.0 0.00 0.52 0.52 56 1005.3
20260509212227 70 214 12.0 17.0 0.00 0.52 0.52 57 1005.3
20260509211722 70 207 10.0 16.0 0.00 0.52 0.52 57 1005.5
20260509211219 70 217 3.0 5.0 0.00 0.52 0.52 56 1005.3
20260509210715 71 226 1.0 3.0 0.00 0.52 0.52 56 1005.2
20260509210213 70 221 5.0 7.0 0.00 0.52 0.52 56 1005.2
20260509205713 70 229 4.0 5.0 0.00 0.52 0.52 57 1005.6
20260509205212 70 220 4.0 6.0 0.00 0.52 0.52 57 1005.7
20260509204709 70 238 8.0 14.0 0.00 0.52 0.52 57 1005.8
20260509204205 70 231 14.0 22.0 0.00 0.52 0.52 57 1005.9
20260509203701 69 238 10.0 14.0 0.00 0.52 0.52 59 1005.8
20260509203200 70 185 4.0 6.0 0.00 0.52 0.52 58 1005.9
20260509202655 70 290 3.0 5.0 0.00 0.52 0.52 60 1006.1
20260509202150 70 223 5.0 8.0 0.00 0.52 0.52 57 1006.2
20260509201646 69 245 5.0 7.0 0.00 0.52 0.52 59 1006.4
20260509201143 69 264 5.0 9.0 0.00 0.52 0.52 58 1006.2
20260509200639 69 224 4.0 6.0 0.00 0.52 0.52 61 1006.3
20260509200134 70 196 5.0 8.0 0.00 0.52 0.52 60 1005.9
20260509195630 69 208 5.0 6.0 0.00 0.52 0.52 61 1006.3
20260509195125 69 207 3.0 3.0 0.00 0.52 0.52 60 1006.5
20260509194625 68 237 3.0 3.0 0.00 0.52 0.52 63 1006.6
20260509194122 69 221 5.0 6.0 0.00 0.52 0.52 61 1006.4
20260509193618 69 214 2.0 3.0 0.00 0.52 0.52 62 1006.7
20260509193114 68 187 5.0 7.0 0.00 0.52 0.52 62 1006.6
20260509192611 68 217 7.0 13.0 0.00 0.52 0.52 62 1006.7
20260509192106 69 216 6.0 8.0 0.00 0.52 0.52 62 1006.8
20260509191601 69 182 2.0 5.0 0.00 0.52 0.52 61 1006.8
20260509191057 68 170 5.0 8.0 0.00 0.52 0.52 63 1006.6
20260509190554 69 144 8.0 13.0 0.00 0.52 0.52 61 1006.6
20260509190052 67 222 3.0 5.0 0.00 0.52 0.52 64 1006.8
20260509185549 68 225 5.0 9.0 0.00 0.52 0.52 62 1006.7
20260509185045 68 257 7.0 10.0 0.00 0.52 0.52 65 1007.1
20260509184543 68 221 2.0 3.0 0.00 0.52 0.52 63 1007.0
20260509184039 67 216 7.0 9.0 0.00 0.52 0.52 63 1007.1
20260509183535 66 219 0.0 1.0 0.00 0.52 0.52 68 1007.3
20260509183031 67 218 5.0 8.0 0.00 0.52 0.52 65 1007.0
20260509182527 67 208 4.0 6.0 0.00 0.52 0.52 63 1007.0
20260509182025 67 231 3.0 5.0 0.00 0.52 0.52 65 1007.1
20260509181523 68 212 6.0 7.0 0.00 0.52 0.52 64 1006.8
20260509181020 67 241 4.0 6.0 0.00 0.52 0.52 66 1007.0
20260509180515 67 239 3.0 6.0 0.00 0.52 0.52 68 1006.8
20260509180013 66 287 4.0 6.0 0.00 0.52 0.52 68 1007.1